This demonstration page uses our WeatherBlox Daily Observations layout. Learn more.

Left ArrowRight Arrow

41.86663, -103.66717

Hourly Observations for September 2, 2015

Temp ( °F °C ) Dew Point ( °F °C ) Humidity (%) Winds ( mph kmh ) Pressure ( in mb ) Visibility ( mi km ) Precip ( " mm )
12:53 am 00:53 Clear 59 15 50 10 72 72 W 3 6 29.80 1009 10 16 N/A
1:53 am 01:53 Clear 58 14.4 52 11.1 81 81 undefined N/A 29.82 1010 10 16 N/A
2:53 am 02:53 Clear 58 14.4 51 10.6 78 78 NNE 5 7 29.81 1010 10 16 N/A
3:53 am 03:53 Clear 58 14.4 50 10 75 75 N N/A 29.82 1010 10 16 N/A
4:53 am 04:53 Clear 56 13.3 50 10 81 81 NNW 5 7 29.83 1010 10 16 N/A
5:53 am 05:53 Clear 56 13.3 51 10.6 84 84 NW 7 11 29.83 1010 10 16 N/A
6:53 am 06:53 Sunny 55 12.8 51 10.6 87 87 W 6 9 29.86 1011 10 16 N/A
7:53 am 07:53 Sunny 64 17.8 49 9.4 58 58 WSW 3 6 29.87 1012 10 16 N/A
8:53 am 08:53 Sunny 67 19.4 50 10 55 55 N N/A 29.87 1012 10 16 N/A
9:53 am 09:53 Sunny 74 23.3 49 9.4 41 41 W 3 6 29.86 1011 10 16 N/A
10:53 am 10:53 Sunny 81 27.2 52 11.1 37 37 WNW 8 13 29.85 1011 10 16 N/A
11:53 am 11:53 Sunny 88 31.1 50 10 27 27 WNW 8 13 29.82 1010 10 16 N/A
12:53 pm 12:53 Sunny 90 32.2 47 8.3 23 23 NW 7 11 29.80 1009 10 16 N/A
1:53 pm 13:53 Sunny 92 33.3 45 7.2 20 20 VRB 3 6 29.79 1009 10 16 N/A
2:53 pm 14:53 Sunny 94 34.4 40 4.4 15 15 WSW 6 9 29.76 1008 10 16 N/A
3:53 pm 15:53 Sunny 94 34.4 39 3.9 15 15 WSW 5 7 29.74 1007 10 16 N/A
4:53 pm 16:53 Sunny 94 34.4 38 3.3 14 14 N N/A 29.73 1007 10 16 N/A
5:53 pm 17:53 Sunny 92 33.3 44 6.7 19 19 SSE 7 11 29.73 1007 10 16 N/A
6:53 pm 18:53 Sunny 86 30 50 10 29 29 ESE 8 13 29.75 1007 10 16 N/A
7:53 pm 19:53 Clear 76 24.4 53 11.7 45 45 E 5 7 29.75 1008 10 16 N/A
8:53 pm 20:53 Clear 71 21.7 55 12.8 57 57 ESE 3 6 29.78 1008 10 16 N/A
9:53 pm 21:53 Clear 71 21.7 54 12.2 55 55 E 3 6 29.78 1008 10 16 N/A
10:53 pm 22:53 Clear 69 20.6 53 11.7 57 57 E 5 7 29.76 1008 10 16 N/A
11:53 pm 23:53 Clear 68 20 52 11.1 57 57 ESE 5 7 29.75 1007 10 16 N/A

Powered by AerisWeather